Las Cruces, NM

7:06 PM MDT on May 23, 2017 (GMT -0600)
Las Cruces International

Weather History for KLRU - April, 2013

Change the Weather History Date:

Saturday, April 13, 2013

  Actual Average Record
Temperature  
Mean Temperature 62 °F -  
Max Temperature 79 °F 72 °F 89 °F (2006)
Min Temperature 46 °F 44 °F 35 °F (2001)
Degree Days  
Heating Degree Days 2    
Growing Degree Days 12 (Base 50)    
Moisture  
Dew Point 19 °F    
Average Humidity 17    
Maximum Humidity 31    
Minimum Humidity 10    
Precipitation  
Precipitation 0.00 in - - ()
Sea Level Pressure  
Sea Level Pressure 29.84 in    
Wind  
Wind Speed 8 mph (WNW)    
Max Wind Speed 26 mph    
Max Gust Speed 33 mph    
Visibility 10 miles    
Events      
Averages and records for this station are not official NWS values.
T = Trace of Precipitation, MM = Missing Value Source: NWS Daily Summary

Daily Weather History Graph

Daily Weather History Graph

Search for Another Location

Airport or City:

Trip Planner

Search our weather history database for the weather conditions in past years. The results will help you decide how hot, cold, wet, or windy it might be!

Date:

Astronomy

Apr. 13, 2013 Rise Set
Actual Time 6:40 AM MDT 7:36 PM MDT
Civil Twilight 6:15 AM MDT 8:01 PM MDT
Nautical Twilight 5:45 AM MDT 8:30 PM MDT
Astronomical Twilight 5:15 AM MDT 9:01 PM MDT
Moon 8:43 AM MDT (4/13) 10:52 PM MDT (4/13)
Length of Visible Light 13h 45m
Length of Day
12h 55m
Waxing Crescent, 11% of the Moon is Illuminated
Apr 13
Waxing Crescent
Apr 18
First Quarter
Apr 25
Full
May 2
Last Quarter
May 9
New

Hourly Weather History & Observations

Time (MDT) Temp. Dew Point Humidity Pressure Visibility Wind Dir Wind Speed Gust Speed Precip Events Conditions
12:15 AM 58.1 °F 17.8 °F 21% 29.89 in 10.0 mi NNW 5.8 mph - N/A   Clear
12:35 AM 59.2 °F 18.9 °F 21% 29.90 in 10.0 mi NW 5.8 mph - N/A   Clear
12:55 AM 59.2 °F 19.4 °F 21% 29.89 in 10.0 mi NNW 5.8 mph - N/A   Clear
1:15 AM 59.2 °F 19.8 °F 22% 29.90 in 10.0 mi North 5.8 mph - N/A   Scattered Clouds
1:35 AM 59.4 °F 19.8 °F 22% 29.90 in 10.0 mi NNE 3.5 mph - N/A   Mostly Cloudy
1:55 AM 59.0 °F 20.1 °F 22% 29.90 in 10.0 mi East 5.8 mph - N/A   Mostly Cloudy
2:15 AM 62.1 °F 20.1 °F 20% 29.90 in 10.0 mi Calm Calm - N/A   Overcast
2:35 AM 67.1 °F 20.3 °F 17% 29.90 in 10.0 mi Calm Calm - N/A   Scattered Clouds
2:55 AM 64.2 °F 20.1 °F 18% 29.89 in 10.0 mi NNW 3.5 mph - N/A   Scattered Clouds
3:15 AM 62.6 °F 20.3 °F 20% 29.88 in 10.0 mi WNW 5.8 mph - N/A   Scattered Clouds
3:35 AM 62.1 °F 20.3 °F 20% 29.88 in 10.0 mi NNW 8.1 mph - N/A   Scattered Clouds
3:55 AM 59.9 °F 19.9 °F 21% 29.88 in 10.0 mi NW 10.4 mph - N/A   Scattered Clouds
4:15 AM 58.8 °F 20.1 °F 22% 29.88 in 10.0 mi NW 8.1 mph - N/A   Clear
4:35 AM 57.6 °F 19.9 °F 23% 29.87 in 10.0 mi NNW 10.4 mph - N/A   Clear
4:55 AM 59.0 °F 21.0 °F 23% 29.87 in 10.0 mi WNW 5.8 mph - N/A   Clear
5:15 AM 56.5 °F 20.7 °F 25% 29.88 in 10.0 mi NW 6.9 mph - N/A   Clear
5:35 AM 54.5 °F 20.5 °F 27% 29.87 in 10.0 mi ENE 4.6 mph - N/A   Scattered Clouds
5:55 AM 53.1 °F 21.2 °F 29% 29.87 in 10.0 mi ENE 5.8 mph - N/A   Mostly Cloudy
6:15 AM 52.0 °F 20.8 °F 30% 29.87 in 10.0 mi ENE 3.5 mph - N/A   Scattered Clouds
6:35 AM 49.3 °F 19.8 °F 31% 29.88 in 10.0 mi Calm Calm - N/A   Clear
6:55 AM 49.1 °F 19.8 °F 31% 29.88 in 10.0 mi ENE 3.5 mph - N/A   Clear
7:15 AM 46.9 °F 17.6 °F 31% 29.88 in 10.0 mi Calm Calm - N/A   Clear
7:35 AM 50.0 °F 19.0 °F 29% 29.88 in 10.0 mi NNW 4.6 mph - N/A   Clear
7:55 AM 58.1 °F 21.7 °F 25% 29.88 in 10.0 mi Calm Calm - N/A   Clear
8:15 AM 62.2 °F 22.8 °F 22% 29.88 in 10.0 mi NNW 3.5 mph - N/A   Clear
8:35 AM 64.8 °F 23.0 °F 20% 29.89 in 10.0 mi ENE 3.5 mph - N/A   Clear
8:55 AM 66.4 °F 23.2 °F 19% 29.90 in 10.0 mi North 9.2 mph - N/A   Clear
9:15 AM 68.5 °F 23.2 °F 18% 29.90 in 10.0 mi North 9.2 mph - N/A   Clear
9:35 AM 70.0 °F 22.6 °F 17% 29.90 in 10.0 mi NE 5.8 mph - N/A   Clear
9:55 AM 70.5 °F 22.6 °F 16% 29.91 in 10.0 mi NNE 6.9 mph 16.1 mph N/A   Clear
10:15 AM 70.9 °F 22.1 °F 16% 29.90 in 10.0 mi NE 8.1 mph - N/A   Clear
10:35 AM 71.8 °F 22.5 °F 16% 29.90 in 10.0 mi ENE 11.5 mph - N/A   Clear
10:55 AM 72.7 °F 22.8 °F 15% 29.90 in 10.0 mi ENE 9.2 mph - N/A   Clear
11:15 AM 73.4 °F 22.8 °F 15% 29.89 in 10.0 mi East 9.2 mph - N/A   Clear
11:35 AM 74.3 °F 22.1 °F 14% 29.88 in 10.0 mi ENE 8.1 mph - N/A   Clear
11:55 AM 73.8 °F 21.7 °F 14% 29.87 in 10.0 mi Calm Calm - N/A   Clear
12:15 PM 75.0 °F 19.4 °F 12% 29.87 in 10.0 mi NW 3.5 mph - N/A   Scattered Clouds
12:35 PM 75.0 °F 18.9 °F 12% 29.86 in 10.0 mi West 4.6 mph - N/A   Scattered Clouds
12:55 PM 77.0 °F 19.2 °F 11% 29.85 in 10.0 mi SW 6.9 mph 16.1 mph N/A   Clear
1:15 PM 75.9 °F 18.5 °F 12% 29.84 in 10.0 mi Calm Calm - N/A   Clear
1:35 PM 77.2 °F 18.5 °F 11% 29.84 in 10.0 mi SW 8.1 mph 17.3 mph N/A   Clear
1:55 PM 77.4 °F 18.7 °F 11% 29.83 in 10.0 mi West 20.7 mph 25.3 mph N/A   Clear
2:15 PM 77.0 °F 18.1 °F 11% 29.81 in 10.0 mi West 13.8 mph 23.0 mph N/A   Clear
2:35 PM 78.8 °F 18.3 °F 10% 29.82 in 10.0 mi WSW 16.1 mph 20.7 mph N/A   Clear
2:55 PM 79.0 °F 16.9 °F 10% 29.81 in 10.0 mi WSW 16.1 mph 27.6 mph N/A   Clear
3:15 PM 78.8 °F 16.9 °F 10% 29.80 in 10.0 mi SW 16.1 mph 26.5 mph N/A   Clear
3:35 PM 78.3 °F 16.5 °F 10% 29.79 in 10.0 mi WSW 15.0 mph 23.0 mph N/A   Clear
3:55 PM 78.6 °F 16.7 °F 10% 29.78 in 10.0 mi WSW 9.2 mph 23.0 mph N/A   Clear
4:15 PM 78.6 °F 17.6 °F 10% 29.77 in 10.0 mi WSW 19.6 mph 26.5 mph N/A   Clear
4:35 PM 78.3 °F 19.2 °F 11% 29.77 in 10.0 mi WSW 12.7 mph 23.0 mph N/A   Clear
4:55 PM 78.3 °F 18.5 °F 11% 29.76 in 10.0 mi West 12.7 mph 26.5 mph N/A   Clear
5:15 PM 78.4 °F 17.6 °F 10% 29.76 in 10.0 mi WSW 26.5 mph 31.1 mph N/A   Clear
5:35 PM 78.1 °F 17.4 °F 10% 29.76 in 10.0 mi West 26.5 mph 31.1 mph N/A   Clear
5:55 PM 77.4 °F 17.2 °F 10% 29.76 in 10.0 mi West 18.4 mph 33.4 mph N/A   Clear
6:15 PM 76.8 °F 16.3 °F 10% 29.76 in 10.0 mi West 21.9 mph 29.9 mph N/A   Clear
6:35 PM 75.9 °F 17.1 °F 11% 29.76 in 10.0 mi West 23.0 mph 26.5 mph N/A   Clear
6:55 PM 74.3 °F 17.2 °F 12% 29.76 in 10.0 mi WSW 25.3 mph 33.4 mph N/A   Clear
7:15 PM 73.4 °F 17.4 °F 12% 29.77 in 10.0 mi West 24.2 mph 29.9 mph N/A   Clear
7:35 PM 72.1 °F 16.9 °F 12% 29.76 in 10.0 mi WSW 18.4 mph 23.0 mph N/A   Clear
7:55 PM 71.2 °F 16.7 °F 13% 29.76 in 10.0 mi West 17.3 mph - N/A   Clear
8:15 PM 69.8 °F 16.2 °F 13% 29.77 in 10.0 mi WSW 13.8 mph - N/A   Clear
8:55 PM 67.5 °F 16.2 °F 14% 29.78 in 10.0 mi West 12.7 mph - N/A   Clear
9:15 PM 65.8 °F 15.6 °F 14% 29.79 in 10.0 mi WSW 10.4 mph - N/A   Clear
9:35 PM 63.3 °F 14.9 °F 15% 29.79 in 10.0 mi West 9.2 mph - N/A   Clear
9:55 PM 63.3 °F 15.3 °F 16% 29.79 in 10.0 mi West 10.4 mph - N/A   Clear
10:15 PM 63.3 °F 15.6 °F 16% 29.79 in 10.0 mi WSW 9.2 mph - N/A   Clear
10:35 PM 61.5 °F 14.9 °F 16% 29.79 in 10.0 mi West 9.2 mph - N/A   Clear
10:55 PM 63.1 °F 15.8 °F 16% 29.78 in 10.0 mi West 15.0 mph 18.4 mph N/A   Clear
11:15 PM 64.0 °F 16.2 °F 16% 29.78 in 10.0 mi West 17.3 mph - N/A   Clear
11:35 PM 64.9 °F 16.7 °F 16% 29.79 in 10.0 mi West 20.7 mph 26.5 mph N/A   Clear
11:55 PM 64.2 °F 16.5 °F 16% 29.80 in 10.0 mi West 11.5 mph - N/A   Clear